Theta_e
295 296 296 296 296 297 298 300 300 301 302 304 307 309 311 311 312 314 315 316 316 316 318 320 320 320 320 320 319 319 319 319 321 323 325 326 326 324 323 325 327 328 330 331 330 330 330 331 332 332 331 330
293 293 292 292 293 293 293 294 296 297 298 300 303 305 307 308 309 310 312 314 315 315 315 317 318 319 319 319 319 320 320 318 319 322 325 326 325 324 323 322 321 322 324 327 328 328 328 329 330 330 330 329
292 292 291 291 292 291 290 290 291 293 294 296 298 300 303 304 306 307 308 310 312 313 314 315 316 317 318 319 319 319 320 318 318 321 324 326 325 323 322 321 321 320 321 324 326 326 325 326 327 327 328 328
291 292 292 290 291 291 290 289 289 290 291 292 293 295 298 300 302 304 304 305 307 309 311 313 314 316 317 317 317 318 319 318 318 320 323 325 325 323 322 321 321 320 320 323 325 325 325 325 325 325 326 327
291 291 291 290 290 290 290 290 290 289 289 290 290 292 294 296 298 300 302 302 303 305 307 309 311 314 315 316 316 318 319 318 318 320 322 324 324 323 323 322 321 321 321 321 323 324 324 323 323 323 324 325
291 290 290 290 289 289 290 290 290 289 289 289 289 289 290 292 294 296 298 300 301 302 303 304 308 311 313 314 315 316 318 318 319 322 322 322 322 322 322 321 320 320 320 321 322 323 323 322 321 321 321 321
290 289 289 289 289 289 289 289 289 289 289 288 288 288 289 289 290 292 294 297 298 300 301 302 304 306 309 311 313 314 316 317 319 321 321 321 321 321 320 319 318 317 317 318 320 322 322 322 321 320 320 319
289 289 288 288 288 288 288 288 288 288 288 288 288 287 288 288 288 289 290 292 295 297 299 300 301 303 305 307 310 312 313 314 316 318 320 320 320 320 319 318 317 317 316 315 316 318 319 320 321 320 319 319
288 288 288 288 287 287 287 288 287 287 287 288 287 286 287 287 287 288 288 289 291 294 296 298 300 301 302 303 306 308 311 311 312 314 317 319 319 319 319 318 317 317 316 313 313 316 319 320 320 320 319 318
287 287 287 287 287 286 287 287 287 287 286 287 287 285 285 286 287 287 287 287 288 290 293 295 297 298 299 300 302 304 307 309 310 310 312 315 318 318 318 318 316 316 315 313 312 315 319 320 319 319 319 318
287 287 286 287 286 286 286 286 286 286 286 286 286 285 284 285 286 286 286 286 286 288 290 293 294 296 297 298 300 301 302 305 307 308 309 311 313 316 317 317 315 314 315 314 312 313 316 318 318 318 317 316
286 286 286 286 286 286 286 286 285 286 286 286 286 285 284 284 285 285 285 285 285 286 288 290 292 294 295 296 298 299 299 301 303 305 306 308 309 311 313 316 316 314 314 314 313 312 313 315 316 317 317 316
286 286 286 286 286 285 285 286 285 285 285 285 285 284 283 283 284 284 284 284 284 285 286 288 290 291 293 294 296 297 298 298 299 301 303 305 306 308 309 311 314 315 314 314 314 313 312 312 313 314 315 315
286 286 286 286 286 285 285 285 285 285 284 284 284 283 282 282 283 283 283 283 283 284 285 285 287 290 291 292 294 295 296 297 297 298 299 301 303 306 307 308 309 312 313 314 314 314 313 313 312 312 313 315
286 286 286 285 285 285 285 285 285 285 284 284 283 282 282 282 282 282 282 282 283 284 284 284 285 287 289 291 292 293 294 295 296 297 297 298 300 303 305 307 307 308 310 311 312 313 313 313 313 312 312 314
286 285 285 285 285 285 284 285 285 284 284 284 283 282 281 281 282 281 281 281 282 284 284 284 283 284 286 289 291 292 293 294 295 296 297 297 298 300 302 304 306 306 306 308 309 310 311 312 312 312 312 313
286 286 285 285 285 285 284 284 284 284 284 284 283 282 281 281 281 281 281 281 282 283 283 283 283 283 284 286 289 291 292 293 294 295 295 296 297 298 299 301 303 304 305 306 307 307 308 310 311 311 311 311
286 286 286 285 285 285 285 284 284 284 283 283 283 282 281 281 281 280 280 281 281 282 282 283 283 283 282 283 286 289 291 292 293 294 294 295 295 296 297 298 300 301 302 303 305 306 305 306 308 309 310 310
285 285 285 285 285 285 285 284 284 284 283 283 283 282 281 281 281 280 280 280 280 281 281 282 282 282 281 281 283 286 288 290 291 292 293 293 293 294 295 296 297 298 299 300 302 303 303 303 304 305 307 309
285 285 285 285 285 285 285 285 284 284 283 283 283 282 282 281 281 280 280 280 280 280 280 281 282 282 281 280 281 283 286 288 290 291 292 293 293 292 293 294 296 297 297 298 299 301 302 301 301 302 303 306
285 285 285 285 284 284 285 285 284 284 283 283 283 283 282 281 281 280 280 280 279 279 279 280 280 281 280 280 280 281 283 285 288 289 290 291 292 292 291 292 293 295 296 296 297 299 300 301 301 300 300 302
285 285 285 284 284 284 284 284 284 284 284 283 283 283 282 282 281 280 280 280 280 279 279 279 279 279 280 280 279 280 281 282 285 287 288 289 291 291 291 291 291 292 294 295 296 297 298 299 300 300 299 299
284 284 284 284 284 283 284 284 284 284 284 283 283 283 282 282 282 281 280 280 280 280 279 279 279 279 279 279 279 279 279 280 282 284 286 288 289 290 291 291 290 290 292 294 295 296 296 297 298 299 299 298
284 284 284 284 283 283 284 284 284 284 284 283 283 283 282 282 282 281 281 280 280 280 280 279 279 279 279 279 279 279 279 280 280 281 284 286 287 288 290 290 289 289 291 293 294 295 296 296 297 298 299 298
284 284 284 283 283 284 284 284 284 284 284 284 283 283 282 282 282 282 281 281 280 280 280 280 279 279 279 278 279 279 279 279 279 279 282 284 285 286 287 289 289 289 290 291 292 293 295 296 297 298 298 298
284 284 284 283 283 284 283 283 283 283 283 283 284 283 283 282 282 282 281 281 281 280 280 280 280 279 279 278 278 278 279 278 278 278 279 281 283 284 285 287 288 288 289 289 289 290 292 294 296 297 297 296
284 284 284 283 283 283 283 283 283 283 283 283 284 284 283 283 282 282 282 281 281 280 280 280 279 279 279 279 278 278 278 278 278 278 278 279 281 282 283 285 286 287 288 287 288 290 292 294 295 296 296 294
284 284 283 283 283 283 283 283 283 283 283 283 283 283 283 283 283 282 282 281 281 281 280 280 279 279 279 279 279 278 278 278 278 277 277 278 279 281 282 283 284 286 287 287 287 288 291 292 294 296 294 291
284 283 283 283 283 283 283 283 283 283 283 283 283 283 283 283 283 282 282 282 281 281 281 280 280 279 279 279 279 278 278 278 278 277 277 277 278 279 280 281 283 284 285 286 286 286 288 290 292 293 291 290
284 283 283 283 283 283 282 282 282 282 282 282 282 282 282 282 282 282 282 282 281 281 281 280 280 279 279 279 279 278 278 278 278 277 277 277 277 277 279 280 282 283 283 284 285 285 286 287 288 289 288 290
284 283 283 283 282 282 282 282 282 282 282 281 281 281 282 282 282 282 282 282 282 281 281 281 280 280 279 279 279 278 278 278 278 277 277 277 276 276 277 279 280 281 281 282 283 283 285 286 286 287 288 289
Wind_Speed
34 35 35 37 37 37 37 36 37 38 38 37 35 33 32 31 30 28 28 27 27 26 25 25 25 25 25 26 27 27 27 24 22 21 20 18 15 15 15 10 6 9 11 14 15 16 21 25 26 28 27 23
33 35 36 37 37 38 39 39 38 38 39 38 37 36 34 34 33 32 29 28 28 28 27 26 25 25 27 27 27 26 27 27 24 21 19 15 12 9 10 11 10 11 7 6 8 12 14 18 21 22 20 14
31 33 34 36 36 37 39 41 41 40 40 40 39 37 36 36 36 36 34 32 30 30 30 29 27 26 27 27 28 27 26 28 25 22 17 12 8 5 8 9 8 9 8 9 6 6 3 7 13 14 13 10
31 30 31 35 36 36 38 40 41 41 41 41 41 40 38 37 37 37 38 38 35 33 31 31 30 28 28 28 29 28 27 28 24 21 18 12 8 7 9 8 5 6 6 6 5 3 2 2 5 5 4 9
30 30 30 32 34 35 36 38 39 41 42 42 42 42 41 40 39 38 38 39 39 37 34 32 31 29 29 29 29 28 27 28 26 21 15 10 9 8 7 5 4 4 3 4 5 5 4 3 4 3 2 3
28 29 30 32 33 34 34 35 37 39 40 42 42 42 42 42 41 40 40 39 39 39 38 36 33 30 29 28 28 28 26 27 26 19 11 10 9 6 5 4 4 3 1 2 5 6 5 4 4 5 6 5
27 29 30 32 33 33 33 33 34 35 37 39 41 42 42 41 41 40 39 39 39 38 38 38 37 33 31 30 29 27 25 24 22 17 11 9 8 6 6 6 5 5 2 1 4 7 7 7 7 7 8 7
27 29 30 31 33 33 33 32 32 33 34 35 38 41 41 40 40 40 39 40 40 39 39 39 39 38 36 33 31 28 25 24 22 20 15 11 10 9 9 8 8 9 7 5 6 9 10 11 10 10 11 9
26 28 29 30 31 33 32 32 32 32 33 33 35 39 40 39 39 39 40 41 40 40 40 39 40 40 39 36 33 30 27 26 25 23 21 18 15 11 10 10 12 12 11 8 6 10 13 14 13 13 13 11
26 27 28 28 29 32 31 30 31 31 32 32 32 37 39 38 38 38 39 40 41 40 39 38 38 38 38 37 35 32 30 28 27 25 23 20 19 15 11 11 12 13 13 10 8 10 14 14 15 14 14 12
25 26 27 26 26 30 29 28 30 29 30 30 30 34 37 37 36 37 38 38 39 39 38 36 36 36 37 37 35 33 32 30 28 27 25 22 20 18 15 12 11 12 13 12 10 11 13 14 15 15 14 12
23 24 25 25 25 28 27 26 28 27 27 28 29 31 35 35 34 34 36 37 38 37 37 36 35 34 35 36 35 33 32 32 31 29 28 26 23 19 17 14 12 11 13 13 12 11 13 15 15 15 15 13
22 22 24 25 24 26 27 24 25 25 25 27 27 29 32 33 32 32 33 34 35 35 36 36 35 34 34 35 35 34 32 32 32 31 30 28 26 22 19 17 15 14 13 14 14 14 15 16 16 16 16 16
21 21 22 23 22 24 25 23 23 23 24 25 25 27 30 31 30 30 31 32 33 33 34 35 35 34 34 35 35 34 32 31 31 31 31 30 28 25 21 19 17 17 16 15 15 16 17 17 17 18 19 19
21 21 22 22 21 22 24 21 21 22 23 23 24 26 29 30 29 29 29 30 31 30 31 33 34 34 34 35 35 33 32 31 29 29 29 29 28 26 24 22 19 16 15 15 17 18 18 18 18 19 19 20
21 21 21 21 22 23 24 21 20 21 21 22 22 24 27 28 28 28 29 29 29 28 28 30 31 33 34 34 34 33 31 31 29 28 27 28 28 26 23 23 22 18 14 13 14 17 19 20 20 20 19 20
19 19 19 20 20 22 23 20 19 20 20 20 20 22 25 26 26 27 28 28 28 26 26 27 29 31 32 32 32 32 31 31 30 29 27 27 28 28 25 22 22 21 18 14 12 13 15 18 21 21 21 21
18 17 18 18 18 20 21 19 18 19 19 19 18 20 24 25 25 25 26 27 27 26 25 25 26 28 30 31 30 30 31 31 31 30 29 26 26 27 27 25 22 21 21 19 17 13 11 11 15 20 22 22
17 16 17 18 18 18 19 18 17 18 18 18 18 19 22 24 23 24 24 25 25 25 24 24 25 26 29 30 29 29 29 30 30 30 29 27 24 24 25 25 24 22 21 20 20 19 15 11 10 13 19 22
16 14 15 16 17 17 17 17 16 17 17 16 17 18 21 23 22 23 24 23 24 24 24 23 23 24 27 29 28 28 28 28 29 29 29 27 24 23 23 24 24 24 22 21 20 19 20 18 13 10 12 16
14 14 14 15 17 17 15 15 15 15 16 15 16 17 20 21 20 21 23 23 23 23 23 23 22 23 24 27 27 27 27 27 27 27 28 27 24 22 22 23 23 24 24 23 22 20 20 22 21 16 12 10
13 13 13 14 16 16 14 15 15 15 14 13 15 17 19 20 19 20 22 22 22 22 22 21 22 22 23 24 25 26 26 27 27 26 26 26 24 22 21 20 22 24 24 24 23 22 20 20 22 22 19 14
13 13 13 15 16 16 14 14 15 15 13 13 15 16 17 18 19 20 21 22 21 21 21 21 21 21 22 23 23 25 25 27 28 27 26 25 24 23 20 17 21 25 24 22 20 20 19 18 19 21 22 20
12 13 13 15 17 16 15 15 15 15 13 14 16 15 15 16 17 20 21 22 22 21 20 20 20 20 21 21 21 23 24 25 27 26 26 24 23 24 21 18 21 26 25 20 18 20 20 18 17 18 20 21
11 12 13 15 16 16 15 16 17 16 15 17 18 15 13 14 16 18 19 21 22 21 20 19 19 19 19 19 20 20 20 22 23 24 24 23 22 22 22 20 20 26 24 17 16 18 19 20 16 13 15 17
10 11 12 15 15 15 15 15 17 17 18 20 20 16 13 14 17 17 17 19 20 20 20 20 19 18 18 18 18 18 18 19 20 22 23 22 22 21 21 18 18 24 20 14 16 13 11 14 13 10 7 6
10 11 12 14 13 13 15 16 17 18 19 20 19 17 15 18 20 17 17 18 18 19 19 20 19 18 17 16 16 17 17 17 18 20 21 21 20 20 21 18 17 21 18 15 18 11 5 5 6 7 6 8
10 12 12 12 12 12 14 16 17 18 19 18 17 17 19 21 19 16 18 19 17 17 18 18 19 18 17 16 15 15 14 15 16 17 18 18 18 17 20 19 17 18 17 17 16 7 4 3 2 3 4 11
11 12 12 11 12 14 15 16 17 18 18 18 18 19 21 20 18 18 20 20 18 17 17 17 17 18 18 17 15 14 12 12 14 15 15 16 16 15 15 16 17 17 16 15 14 9 4 3 2 2 6 10
13 12 11 11 13 14 15 17 16 16 18 19 20 22 22 21 20 21 21 20 19 18 17 17 17 17 18 17 14 13 11 10 12 13 13 13 14 13 13 13 14 16 16 13 12 13 8 5 4 5 8 6
14 13 12 12 13 14 15 17 17 17 19 21 22 23 22 22 22 21 20 20 20 19 18 18 16 16 16 15 14 12 11 10 11 12 12 12 12 12 11 11 11 14 17 13 12 14 12 10 10 8 7 4
Wind_Direction
28 28 29 31 29 28 26 25 24 24 25 24 22 17 12 11 8 5 360 357 359 359 357 358 357 354 351 349 347 345 343 340 338 337 335 337 340 343 358 7 309 275 247 234 225 223 225 222 221 224 227 226
27 29 31 32 30 29 29 28 26 24 24 23 23 22 18 16 15 14 8 0 357 357 357 355 352 349 349 348 345 342 339 337 333 333 331 330 344 1 14 21 16 14 359 302 246 224 222 216 217 222 222 220
24 25 26 29 29 27 28 30 29 26 24 22 22 22 20 19 17 16 15 10 4 360 357 354 351 345 345 347 346 342 338 336 333 331 330 318 326 356 357 357 0 11 2 335 295 236 230 211 211 211 207 199
23 22 20 23 26 24 25 26 26 26 24 22 21 20 20 19 18 17 17 16 13 8 2 357 352 347 343 344 346 346 340 338 334 329 328 309 299 319 326 332 344 359 352 329 302 273 311 234 214 207 171 158
20 21 18 19 21 21 21 20 21 22 23 22 21 19 19 19 18 17 17 17 15 13 11 7 359 351 345 341 344 348 342 337 336 333 331 314 301 314 317 306 315 328 318 308 294 278 272 262 251 258 289 145
17 18 17 17 18 18 18 17 17 17 18 20 20 19 18 18 17 17 16 16 15 14 14 13 8 359 351 345 345 349 347 340 335 331 327 321 314 316 332 329 339 352 270 270 272 261 244 254 270 266 280 287
17 17 16 17 16 16 16 15 14 13 14 15 18 18 17 17 16 15 14 13 13 13 13 12 12 9 1 355 351 349 351 347 334 324 320 325 321 312 332 342 348 359 2 305 266 260 254 256 267 269 271 281
18 17 16 16 15 14 15 14 13 12 11 11 13 15 17 16 15 14 12 12 12 12 12 11 11 11 8 2 358 352 351 353 343 328 319 320 322 310 314 323 325 327 322 312 284 267 263 259 255 254 257 267
20 18 17 16 14 13 14 12 11 12 11 9 9 11 13 14 14 13 11 11 11 11 11 11 9 10 10 7 4 359 352 351 351 341 325 314 314 311 307 313 318 321 315 306 288 266 257 252 251 250 253 259
20 19 17 16 13 13 13 11 10 10 10 9 7 8 11 12 12 12 11 9 9 10 10 10 8 8 9 9 9 6 358 349 347 347 341 323 311 306 306 310 312 315 314 303 282 269 257 245 245 248 252 254
19 18 16 15 12 12 13 11 11 9 7 8 6 6 9 10 10 10 10 9 8 8 8 8 7 6 5 8 10 9 5 355 346 343 344 337 321 308 300 298 303 304 303 298 281 270 264 251 244 243 245 244
17 15 14 14 10 9 11 10 10 9 6 8 6 5 8 9 9 8 8 9 9 8 7 6 5 5 3 4 6 9 8 2 355 348 342 338 332 322 308 296 295 295 292 292 282 272 269 263 257 251 245 240
16 13 12 12 9 5 9 10 7 8 8 9 8 4 7 9 10 8 6 7 7 8 8 6 4 3 2 2 2 4 8 6 1 357 350 341 332 327 323 314 299 287 282 283 278 268 264 264 264 262 256 249
14 13 11 11 8 2 8 10 3 4 7 9 9 6 6 9 11 9 6 6 5 6 7 6 5 3 1 1 1 360 2 4 3 1 357 350 339 327 321 321 312 293 278 274 273 268 266 266 264 263 261 257
12 11 9 9 7 1 6 8 2 3 3 5 8 6 7 8 10 9 7 7 6 4 4 5 6 5 1 360 1 359 357 358 360 1 1 357 350 338 321 313 314 311 293 280 276 271 267 267 269 267 264 261
10 8 6 5 5 2 4 5 2 2 2 2 3 3 7 8 9 9 8 8 8 6 2 1 3 5 4 1 359 359 357 354 353 355 359 359 356 351 337 317 308 310 308 297 289 283 275 268 268 269 267 264
6 4 1 359 359 359 2 4 1 0 0 1 359 359 5 6 8 9 7 7 7 8 3 359 0 2 4 3 359 359 357 355 352 350 353 357 357 355 351 339 321 311 306 301 295 298 292 275 267 266 264 262
4 1 358 355 353 353 357 1 359 357 356 358 356 355 0 3 7 8 6 5 6 7 5 0 360 360 1 3 2 1 358 357 355 352 351 353 354 354 354 352 344 329 315 305 293 293 302 286 271 268 264 259
2 360 357 355 351 348 351 353 354 355 353 354 352 349 355 0 4 6 5 5 5 6 5 2 360 358 358 2 4 4 1 358 356 354 353 352 351 349 350 352 352 346 333 319 304 293 295 294 283 279 272 262
359 357 355 355 351 346 345 345 346 351 349 349 349 343 348 356 0 3 3 4 5 6 6 4 360 356 357 0 3 4 3 2 359 357 354 353 352 347 345 346 350 349 342 333 321 303 293 290 286 285 282 271
357 354 351 351 351 346 342 341 338 342 343 342 343 338 340 350 355 357 359 1 2 4 5 5 1 357 357 1 2 2 2 3 3 1 357 354 353 350 345 342 345 348 345 339 333 319 300 290 284 280 281 282
354 353 348 346 348 346 341 339 334 333 335 334 336 334 335 343 348 350 353 357 359 0 2 3 2 359 359 1 2 2 2 3 3 2 1 357 355 354 349 345 347 347 343 339 337 330 315 298 286 277 275 279
347 349 345 343 344 344 339 336 334 330 328 327 327 327 330 336 338 341 346 350 352 355 356 358 360 360 360 360 0 2 2 2 1 0 359 358 357 357 354 350 351 349 343 337 336 334 327 313 295 281 273 272
338 343 341 341 341 340 336 331 330 328 322 318 318 317 321 327 329 331 336 341 342 345 349 352 355 356 358 359 358 360 1 359 357 357 356 356 357 356 355 355 354 351 346 338 335 336 334 326 310 291 277 270
327 337 333 335 336 332 330 327 326 323 318 314 311 307 310 317 321 321 327 332 333 336 340 343 347 350 353 356 356 357 360 357 355 357 356 355 356 355 354 356 357 354 351 347 342 338 334 334 331 312 290 278
314 326 323 326 326 322 321 322 322 319 316 314 309 303 303 313 316 312 316 324 325 327 330 334 338 341 346 350 352 354 356 356 357 359 358 357 356 352 351 354 358 1 4 354 336 325 323 336 349 353 333 312
303 313 314 317 317 314 313 314 316 314 313 313 308 302 301 310 310 302 306 314 316 317 321 325 329 333 337 341 345 348 351 353 355 357 359 0 358 350 347 351 360 9 19 5 340 321 309 341 346 354 13 2
292 304 310 310 306 305 306 309 311 311 310 308 305 301 300 306 303 295 302 307 304 307 311 314 322 327 329 332 337 342 346 347 349 355 358 360 1 354 346 343 347 1 18 18 8 345 299 325 321 334 6 344
281 298 305 302 297 300 303 306 309 308 306 305 303 301 301 302 297 295 301 299 295 298 300 303 312 319 322 325 328 333 339 337 338 348 356 357 360 0 350 336 332 344 3 15 25 27 341 318 319 317 339 335
274 289 294 291 292 298 301 302 304 305 304 304 303 300 300 298 295 295 295 292 290 291 290 292 300 308 314 318 321 325 329 327 327 336 349 355 357 358 352 342 333 336 348 0 15 23 24 10 346 320 327 332
262 275 280 278 282 289 292 294 296 301 302 301 300 298 297 296 295 294 292 289 286 285 284 283 288 297 303 308 312 314 313 312 315 323 335 344 351 355 350 351 342 332 342 351 354 3 11 10 1 346 332 318